Wind_Speed
8 8 8 8 8 8 7 8 8 9 10 10 10 11 11 11 11 11 12 12 13 13 13 13 13 14 14 15 15 15 15 16 16 16 17 17 17 18 17 17 18 18 18
10 10 10 10 10 9 9 9 9 10 11 11 12 12 12 12 13 12 13 13 13 14 14 14 15 15 15 15 15 16 16 17 17 17 17 18 18 18 18 18 18 18 19
12 11 11 12 11 11 11 11 11 11 12 12 13 14 14 14 14 14 14 14 15 15 16 16 16 16 16 16 16 17 17 17 18 18 19 19 19 19 19 19 19 19 19
14 13 13 13 13 13 13 13 13 15 15 14 14 14 15 15 16 16 15 15 16 17 17 17 17 17 17 18 18 18 18 18 19 19 19 19 19 19 20 19 20 20 21
15 15 14 14 14 14 14 15 15 16 16 15 15 15 16 16 16 17 17 17 18 18 18 18 19 19 19 19 19 18 18 19 19 20 20 20 20 20 21 21 22 22 22
16 16 16 15 16 16 17 17 18 18 18 18 17 16 17 17 17 18 18 18 19 19 19 19 19 19 19 20 20 19 19 20 21 21 21 21 21 22 22 22 22 23 23
17 18 18 18 18 19 19 19 20 20 19 19 19 19 18 18 19 19 20 20 20 20 20 20 21 21 21 21 21 21 21 22 22 22 22 23 23 23 23 23 24 24 24
19 19 19 19 20 20 20 21 21 21 21 20 19 19 19 20 20 20 21 21 21 21 21 22 22 22 22 22 23 23 23 23 23 23 23 23 23 24 24 24 24 25 24
21 20 20 21 21 22 23 22 22 21 21 20 19 20 21 21 21 21 22 22 22 23 23 24 24 24 23 24 24 24 24 24 24 24 24 24 24 24 24 24 24 25 24
22 22 22 22 22 23 24 23 23 22 22 22 21 21 21 22 22 22 24 24 24 25 25 25 24 24 24 24 25 25 25 25 25 25 25 25 24 24 24 24 25 25 25
23 23 23 24 25 25 24 23 24 24 24 24 23 23 23 23 23 24 25 26 26 26 27 26 26 26 26 26 26 26 26 26 26 26 25 25 25 25 25 25 26 26 25
25 25 25 24 25 25 24 25 25 25 26 25 25 25 24 24 25 26 26 27 27 27 27 27 27 27 27 27 27 26 26 26 26 26 26 26 26 25 25 25 26 27 26
27 27 26 26 26 26 26 26 26 27 27 26 26 26 26 26 26 27 27 27 27 28 28 28 28 28 28 27 27 27 27 27 27 27 27 26 27 27 28 27 27 27 27
29 29 28 28 28 28 27 27 28 28 28 27 27 27 26 26 27 27 27 27 28 28 29 28 28 28 28 28 28 28 28 28 27 27 28 28 28 28 28 28 28 28 27
30 30 30 30 30 29 29 29 29 29 28 28 27 28 27 27 27 27 28 28 28 29 28 28 28 28 28 28 28 28 28 28 28 27 27 28 28 28 28 28 28 28 28
31 31 31 32 32 31 31 30 30 30 29 29 29 29 28 28 28 28 28 28 27 27 27 28 28 28 28 28 28 28 27 27 27 27 27 27 28 28 28 28 28 28 28
31 32 32 33 32 32 31 31 31 30 30 30 31 31 30 30 30 29 29 28 27 27 27 27 27 28 28 28 28 28 28 28 28 28 28 28 28 28 27 27 28 28 27
33 33 33 33 33 34 33 33 32 32 31 31 32 32 32 31 30 30 29 28 28 28 27 27 26 26 27 27 27 27 28 28 28 29 29 28 28 28 28 28 28 27 27
33 33 34 34 34 34 34 34 34 33 32 32 32 32 32 32 31 30 29 28 28 28 28 27 27 27 27 27 27 27 28 28 29 29 28 28 28 28 28 27 28 28 28
34 34 34 34 34 34 35 35 35 34 33 32 32 32 33 32 31 30 29 28 28 28 28 27 27 27 27 27 27 28 28 28 27 28 28 28 28 28 28 28 28 28 28
33 34 34 34 34 34 34 34 33 32 32 31 32 32 32 32 32 31 30 29 28 28 28 28 27 27 28 29 29 28 28 28 28 28 29 28 28 28 28 28 28 28 28
32 33 33 34 34 33 32 32 31 32 32 32 31 31 31 31 31 30 30 29 29 29 29 28 28 28 29 29 29 29 29 29 29 29 29 29 29 29 28 28 28 28 28
33 33 33 33 33 33 32 32 32 32 32 32 32 31 31 31 30 30 30 30 29 29 28 28 29 29 29 29 30 30 30 30 29 29 29 29 29 29 29 29 28 28 28
32 32 32 32 32 32 32 32 32 32 32 32 31 31 31 30 30 30 30 30 30 30 30 30 31 31 30 30 30 30 30 30 30 30 30 30 30 30 30 30 29 29 29
30 30 31 31 32 32 31 32 32 32 32 32 32 32 31 31 31 30 30 31 31 31 31 31 31 31 31 31 31 31 30 30 31 31 30 30 31 31 30 29 29 29 29
30 30 31 31 31 30 31 31 31 31 32 32 31 31 31 31 31 31 30 30 30 30 30 30 30 30 31 30 30 30 30 30 30 30 30 30 30 30 29 29 29 29 28
Wind_Direction
283 289 295 300 304 308 311 312 316 320 321 322 323 324 323 320 316 316 317 321 323 321 321 321 321 319 316 316 314 312 312 311 308 306 306 306 304 303 301 298 296 292 290
281 287 291 294 296 299 302 304 307 312 314 313 315 316 317 316 316 314 314 316 319 321 319 316 316 316 314 313 312 311 310 310 309 306 306 305 303 302 301 298 296 294 291
280 285 289 288 292 297 300 300 302 306 310 307 309 309 308 308 308 309 311 313 314 315 315 313 313 313 312 312 310 309 309 308 308 308 306 305 303 302 300 297 296 294 292
282 284 285 289 292 293 299 305 303 305 310 304 303 305 304 303 304 304 305 306 308 310 311 311 310 310 310 311 310 308 307 306 306 307 307 306 304 303 302 298 296 294 295
282 281 280 286 290 292 297 301 303 305 307 301 299 301 301 300 302 302 301 302 303 305 307 308 309 308 309 309 310 308 306 305 305 305 305 304 304 303 303 302 299 296 297
278 279 278 282 287 291 296 300 302 302 303 305 301 299 300 298 299 298 298 299 301 302 303 304 305 305 306 305 306 306 305 304 303 303 303 302 301 301 301 302 300 297 296
276 277 278 279 284 287 291 295 299 300 300 302 305 299 298 298 297 296 296 297 299 301 301 302 303 303 303 303 304 305 304 303 302 301 301 300 300 300 300 301 300 298 296
277 279 283 283 285 288 292 296 298 299 299 299 301 301 299 300 298 296 295 295 296 297 298 299 299 299 300 302 303 303 302 302 302 301 299 299 299 299 299 299 300 299 297
276 279 281 286 288 292 290 291 295 296 297 297 297 298 297 297 297 296 296 295 295 296 297 297 296 297 299 299 301 301 301 300 299 300 300 300 299 299 298 298 299 299 298
277 280 281 285 287 289 290 290 292 294 295 293 293 294 295 294 294 295 296 295 294 295 296 295 296 298 299 300 300 299 299 297 297 298 299 300 300 300 299 299 300 300 299
277 279 281 284 285 285 287 288 289 292 292 293 295 295 294 294 293 295 297 296 296 297 296 296 296 297 299 300 300 299 298 296 295 295 296 298 298 297 298 298 299 299 298
275 278 281 283 286 287 288 288 291 292 293 293 294 295 294 293 294 295 295 295 295 296 297 296 295 296 298 298 297 298 297 295 294 294 295 295 296 296 296 296 297 296 296
274 276 279 281 283 286 288 288 290 291 291 292 293 294 294 293 294 294 294 294 295 295 295 295 295 296 296 297 297 296 295 294 292 292 293 293 294 295 295 295 296 295 295
273 275 276 278 280 284 286 287 289 290 290 291 291 293 294 294 294 294 294 294 294 294 294 294 294 295 295 296 296 294 294 293 292 292 293 292 292 293 294 294 296 295 295
273 274 275 277 279 282 284 284 286 288 289 289 290 291 292 293 294 295 296 295 295 295 294 295 295 295 295 296 295 294 294 293 292 292 292 292 293 294 294 294 294 294 294
272 273 274 276 277 279 281 282 284 287 288 288 289 290 291 291 292 294 294 295 296 296 294 294 295 295 294 295 295 295 294 293 293 292 293 293 294 294 294 294 295 295 294
272 273 274 275 276 277 278 281 283 284 286 287 288 288 288 289 291 292 292 293 294 295 295 295 296 295 294 294 295 295 294 292 292 292 292 293 293 293 293 294 295 297 296
271 272 273 274 275 277 277 279 281 282 284 285 285 285 286 288 290 292 292 292 293 294 294 295 296 296 296 295 295 295 294 292 291 291 292 292 292 294 294 295 296 296 296
271 271 272 273 274 276 277 278 280 280 281 282 283 285 285 286 288 290 291 291 292 292 293 293 293 294 295 294 294 295 295 293 291 291 291 291 292 293 294 295 296 296 296
270 271 271 271 272 274 276 277 279 279 279 280 282 284 285 287 289 290 290 290 291 292 292 291 291 292 292 293 293 293 294 294 293 292 291 291 292 292 293 294 295 296 296
270 270 269 270 272 274 275 276 277 277 277 279 282 284 284 286 288 288 288 288 289 290 291 292 292 291 290 290 291 292 293 293 293 293 292 291 291 292 293 294 294 294 295
270 271 269 269 270 272 274 276 277 278 279 280 283 285 285 287 287 287 287 287 287 289 290 291 292 293 294 293 292 293 293 294 293 293 294 292 292 293 293 293 292 292 293
271 269 268 269 270 271 273 274 275 276 279 281 282 283 284 285 286 286 287 287 287 288 289 290 292 293 294 294 293 293 294 294 293 293 293 293 292 292 293 292 291 291 290
272 271 270 270 270 271 272 273 274 274 275 277 279 281 282 283 285 285 285 286 286 286 287 289 291 292 293 293 293 293 293 292 292 293 293 292 291 290 290 290 289 289 288
273 273 272 273 273 273 272 272 272 273 274 276 278 280 280 281 283 283 283 285 286 286 288 289 290 290 291 292 293 293 292 291 292 292 293 292 292 291 289 289 289 288 287
273 275 275 274 273 272 272 271 272 273 274 276 277 278 280 282 283 283 285 287 289 289 289 289 289 289 291 292 292 292 292 292 291 291 291 292 292 292 290 288 288 287 287
Height
5901 5900 5899 5898 5897 5895 5894 5893 5891 5890 5889 5887 5886 5884 5882 5881 5879 5878 5876 5874 5873 5871 5869 5868 5866 5864 5862 5860 5858 5856 5854 5852 5850 5848 5846 5844 5842 5840 5838 5836 5835 5833 5832
5899 5898 5897 5896 5895 5894 5892 5891 5889 5888 5887 5885 5883 5882 5880 5878 5876 5875 5873 5872 5870 5868 5866 5865 5863 5861 5859 5857 5855 5853 5851 5848 5847 5844 5842 5840 5838 5836 5834 5832 5830 5828 5827
5896 5895 5895 5893 5892 5891 5890 5888 5887 5885 5884 5882 5880 5879 5877 5875 5873 5872 5870 5869 5867 5865 5863 5861 5859 5857 5855 5853 5851 5849 5847 5845 5842 5840 5838 5835 5833 5831 5829 5827 5825 5823 5821
5893 5893 5892 5890 5889 5888 5887 5885 5884 5882 5880 5877 5876 5875 5873 5872 5870 5868 5866 5865 5863 5861 5859 5857 5855 5853 5851 5849 5847 5844 5842 5840 5838 5836 5833 5831 5828 5826 5824 5822 5820 5818 5816
5890 5890 5889 5888 5886 5885 5884 5882 5881 5879 5876 5873 5871 5871 5869 5868 5866 5864 5862 5861 5859 5857 5855 5853 5851 5849 5846 5844 5842 5840 5838 5835 5833 5831 5828 5826 5824 5821 5819 5817 5815 5813 5811
5887 5886 5885 5884 5883 5881 5880 5879 5877 5875 5873 5870 5868 5866 5865 5863 5861 5860 5858 5856 5854 5852 5851 5848 5846 5844 5842 5840 5837 5835 5833 5831 5828 5825 5823 5821 5818 5816 5814 5812 5809 5808 5805
5882 5882 5881 5880 5879 5878 5876 5874 5872 5870 5868 5866 5864 5862 5860 5858 5857 5855 5853 5851 5849 5847 5845 5843 5841 5839 5837 5835 5832 5830 5827 5825 5823 5820 5818 5815 5813 5811 5808 5806 5803 5801 5799
5878 5877 5876 5875 5874 5872 5871 5869 5867 5865 5863 5861 5859 5857 5855 5854 5852 5850 5848 5846 5844 5842 5840 5838 5835 5833 5831 5829 5826 5824 5821 5819 5817 5814 5812 5810 5807 5805 5802 5800 5797 5795 5792
5872 5872 5871 5870 5868 5867 5865 5864 5862 5860 5858 5855 5854 5852 5851 5849 5847 5845 5843 5840 5838 5836 5834 5831 5829 5827 5825 5822 5820 5817 5815 5813 5810 5808 5806 5803 5801 5798 5796 5794 5791 5789 5786
5866 5866 5865 5864 5862 5861 5859 5857 5856 5854 5852 5850 5848 5846 5845 5843 5841 5838 5836 5834 5832 5830 5827 5825 5822 5820 5818 5815 5813 5810 5808 5805 5803 5801 5799 5797 5794 5792 5789 5787 5784 5782 5779
5861 5860 5859 5857 5856 5854 5852 5851 5850 5848 5846 5844 5842 5840 5838 5836 5834 5832 5830 5827 5825 5822 5820 5817 5815 5813 5811 5808 5806 5803 5801 5798 5796 5794 5792 5790 5787 5785 5782 5780 5777 5775 5772
5854 5853 5852 5851 5849 5847 5846 5844 5843 5841 5840 5838 5836 5834 5831 5829 5827 5825 5823 5820 5818 5815 5813 5810 5808 5806 5803 5801 5798 5796 5794 5791 5789 5787 5785 5783 5780 5778 5775 5773 5770 5767 5765
5847 5846 5845 5844 5842 5841 5839 5837 5836 5834 5832 5830 5829 5827 5824 5822 5820 5817 5815 5812 5810 5807 5805 5803 5800 5798 5796 5793 5791 5788 5786 5784 5781 5779 5777 5775 5773 5771 5768 5765 5763 5760 5757
5839 5838 5837 5836 5835 5833 5832 5830 5828 5827 5825 5823 5821 5819 5816 5814 5812 5809 5807 5804 5802 5799 5797 5795 5793 5790 5788 5785 5783 5780 5778 5775 5773 5771 5769 5767 5765 5763 5760 5758 5755 5752 5750
5830 5830 5829 5827 5826 5825 5824 5822 5820 5819 5817 5815 5813 5811 5809 5807 5804 5802 5799 5797 5794 5791 5789 5787 5784 5782 5779 5777 5774 5772 5770 5767 5765 5763 5761 5759 5757 5754 5752 5750 5747 5744 5742
5821 5821 5820 5819 5817 5816 5815 5814 5812 5810 5808 5807 5805 5803 5801 5799 5796 5794 5791 5789 5786 5783 5781 5779 5776 5774 5771 5768 5766 5763 5761 5759 5757 5755 5753 5751 5749 5747 5744 5742 5739 5736 5734
5811 5811 5810 5809 5808 5807 5806 5804 5803 5802 5800 5798 5797 5795 5793 5790 5788 5786 5783 5780 5778 5775 5773 5770 5768 5765 5763 5760 5758 5755 5753 5751 5749 5747 5745 5743 5741 5739 5736 5734 5731 5729 5726
5801 5801 5800 5799 5798 5797 5796 5795 5794 5793 5791 5789 5788 5786 5784 5782 5780 5777 5775 5772 5770 5767 5765 5763 5760 5757 5755 5752 5750 5748 5745 5743 5741 5739 5737 5735 5733 5730 5728 5726 5723 5721 5718
5791 5790 5790 5789 5788 5787 5786 5785 5784 5783 5781 5780 5778 5777 5775 5773 5771 5769 5766 5764 5762 5759 5757 5755 5752 5750 5747 5744 5742 5740 5737 5735 5733 5731 5728 5726 5724 5722 5720 5718 5715 5713 5710
5780 5780 5779 5779 5778 5777 5776 5775 5774 5773 5771 5770 5769 5767 5766 5764 5762 5760 5758 5756 5753 5751 5749 5746 5744 5741 5739 5736 5734 5731 5729 5727 5724 5722 5720 5718 5716 5714 5711 5709 5707 5704 5702
5769 5769 5769 5768 5767 5767 5766 5765 5763 5763 5762 5761 5760 5758 5757 5755 5753 5751 5749 5747 5745 5742 5740 5738 5735 5733 5730 5728 5725 5723 5721 5718 5716 5714 5711 5709 5707 5705 5703 5700 5698 5696 5693
5759 5758 5757 5757 5757 5756 5755 5755 5754 5753 5752 5751 5750 5748 5747 5745 5743 5742 5740 5737 5735 5733 5731 5729 5727 5725 5722 5720 5717 5715 5712 5710 5707 5705 5703 5700 5698 5696 5694 5691 5689 5687 5684
5748 5748 5747 5747 5746 5746 5746 5745 5745 5744 5743 5742 5740 5739 5737 5736 5734 5732 5730 5728 5726 5724 5722 5720 5719 5716 5714 5711 5708 5706 5704 5701 5698 5696 5694 5691 5689 5687 5684 5682 5680 5678 5676
5739 5738 5737 5737 5737 5737 5736 5735 5735 5734 5733 5732 5731 5729 5728 5727 5725 5723 5721 5719 5717 5715 5713 5711 5709 5707 5705 5702 5699 5697 5694 5692 5689 5687 5685 5682 5680 5677 5675 5673 5671 5669 5666
5730 5729 5728 5727 5727 5727 5726 5726 5725 5724 5723 5722 5721 5720 5718 5717 5715 5713 5712 5710 5708 5706 5704 5702 5700 5697 5695 5693 5690 5687 5685 5683 5680 5678 5675 5673 5670 5668 5665 5663 5661 5659 5657
5721 5720 5719 5718 5718 5717 5717 5716 5715 5714 5713 5712 5711 5710 5708 5707 5705 5703 5701 5699 5697 5695 5694 5692 5690 5687 5685 5683 5680 5678 5675 5673 5671 5668 5666 5663 5661 5658 5656 5654 5652 5650 5648